Location: Moscow
(55.7500°N, 37.5830°E)
Time: 15:45:46
(UTC+03:00)

FENGYUN 1C DEB - Pass Details

Date: 08 July 2022
Orbit: 590 x 882 km, 98.9° (Epoch: 16 August)

Event Time Altitude Azimuth Distance (km) Brightness Sun altitude
Rises 02:36:22 0° 31° (NNE) 3,251 ? -7.6°
Reaches altitude 10° 02:41:06 10° 71° (ENE) 2,400 ? -7.3°
Maximum altitude 02:42:06 11° 82° (E) 2,379 ? -7.2°
Drops below altitude 10° 02:43:06 10° 93° (E) 2,428 ? -7.1°
Sets 02:48:02 0° 132° (SE) 3,419 ? -6.8°
